Tracking 23757 objects as of 26-Oct-2021
HD Live streaming from Space Station
objects crossing your sky now

COSMOS 1300

Track COSMOS 1300 now!
10-day predictions
COSMOS 1300 is classified as:


NORAD ID: 12785
Int'l Code: 1981-082A
Perigee: 516.1 km
Apogee: 520.0 km
Inclination: 82.5 °
Period: 94.8 minutes
Semi major axis: 6889 km
RCS: 5.912 m2 (large)
Launch date: August 24, 1981
Source: Commonwealth of Independent States (former USSR) (CIS)
Launch site: PLESETSK MISSILE AND SPACE COMPLEX (PKMTR)
aabbcc
Your satellite tracking list
Your tracking list is empty




NASA's NSSDC Master Catalog

Two Line Element Set (TLE):
1 12785U 81082A   21298.26953878  .00001078  00000-0  51004-4 0  9992
2 12785  82.4998 298.4640 0002835 101.1350 269.4073 15.18311748192919
Source of the keplerian elements: AFSPC